TimeCDT,TemperatureF,Dew PointF,Humidity,Sea Level PressureIn,VisibilityMPH,Wind Direction,Wind SpeedMPH,Gust SpeedMPH,PrecipitationIn,Events,Conditions,WindDirDegrees,DateUTC
12:15 AM,78.4,62.1,57,29.92,10.0,Calm,Calm,-,N/A,,Clear,0,2013-06-29 05:15:00
12:35 AM,77.0,61.3,58,29.92,10.0,Calm,Calm,-,N/A,,Clear,0,2013-06-29 05:35:00
12:55 AM,77.2,61.3,58,29.92,10.0,Calm,Calm,-,N/A,,Clear,0,2013-06-29 05:55:00
1:15 AM,76.5,62.6,62,29.91,7.0,Calm,Calm,-,N/A,,Clear,0,2013-06-29 06:15:00
1:35 AM,78.6,60.1,53,29.91,10.0,Calm,Calm,-,N/A,,Clear,0,2013-06-29 06:35:00
1:55 AM,73.9,61.7,65,29.92,10.0,NW,3.5,-,N/A,,Clear,310,2013-06-29 06:55:00
2:15 AM,73.9,64.9,73,29.92,10.0,Calm,Calm,-,N/A,,Clear,0,2013-06-29 07:15:00
2:35 AM,73.9,62.4,67,29.92,10.0,Calm,Calm,-,N/A,,Clear,0,2013-06-29 07:35:00
2:55 AM,73.9,62.4,67,29.92,10.0,Calm,Calm,-,N/A,,Clear,0,2013-06-29 07:55:00
3:15 AM,72.9,61.9,68,29.92,10.0,Calm,Calm,-,N/A,,Clear,0,2013-06-29 08:15:00
3:35 AM,71.6,63.0,74,29.93,10.0,Calm,Calm,-,N/A,,Clear,0,2013-06-29 08:35:00
3:55 AM,71.6,62.6,73,29.93,10.0,Calm,Calm,-,N/A,,Clear,0,2013-06-29 08:55:00
4:15 AM,71.6,63.5,76,29.93,10.0,Calm,Calm,-,N/A,,Clear,0,2013-06-29 09:15:00
4:35 AM,71.6,63.1,75,29.93,10.0,Calm,Calm,-,N/A,,Clear,0,2013-06-29 09:35:00
4:55 AM,69.6,61.3,75,29.93,10.0,Calm,Calm,-,N/A,,Clear,0,2013-06-29 09:55:00
5:15 AM,71.4,64.4,78,29.94,10.0,Calm,Calm,-,N/A,,Clear,0,2013-06-29 10:15:00
5:35 AM,71.2,64.4,79,29.94,10.0,Calm,Calm,-,N/A,,Clear,0,2013-06-29 10:35:00
5:55 AM,70.2,61.2,73,29.94,10.0,Calm,Calm,-,N/A,,Clear,0,2013-06-29 10:55:00
6:15 AM,67.5,59.9,77,29.94,10.0,North,3.5,-,N/A,,Clear,360,2013-06-29 11:15:00
6:35 AM,68.4,61.2,78,29.94,10.0,Calm,Calm,-,N/A,,Clear,0,2013-06-29 11:35:00
6:55 AM,67.1,61.3,82,29.95,10.0,Calm,Calm,-,N/A,,Clear,0,2013-06-29 11:55:00
7:15 AM,68.9,62.8,81,29.95,10.0,Calm,Calm,-,N/A,,Clear,0,2013-06-29 12:15:00
7:35 AM,69.8,63.1,79,29.95,10.0,Calm,Calm,-,N/A,,Clear,0,2013-06-29 12:35:00
7:55 AM,71.6,63.0,74,29.95,10.0,Calm,Calm,-,N/A,,Clear,0,2013-06-29 12:55:00
8:15 AM,73.9,63.5,70,29.95,10.0,NNW,3.5,-,N/A,,Clear,330,2013-06-29 13:15:00
8:35 AM,76.5,64.2,66,29.95,10.0,Calm,Calm,-,N/A,,Clear,0,2013-06-29 13:35:00
8:55 AM,78.3,64.0,61,29.95,10.0,Calm,Calm,-,N/A,,Clear,0,2013-06-29 13:55:00
9:15 AM,81.5,62.6,53,29.96,10.0,Calm,Calm,-,N/A,,Clear,0,2013-06-29 14:15:00
9:35 AM,83.5,62.6,49,29.95,10.0,Calm,Calm,-,N/A,,Clear,0,2013-06-29 14:35:00
9:55 AM,85.1,61.7,45,29.95,10.0,Calm,Calm,-,N/A,,Clear,0,2013-06-29 14:55:00
10:15 AM,88.5,62.2,41,29.94,10.0,Calm,Calm,-,N/A,,Clear,0,2013-06-29 15:15:00
10:35 AM,90.9,62.6,39,29.94,10.0,Calm,Calm,-,N/A,,Clear,0,2013-06-29 15:35:00
10:55 AM,91.6,60.4,35,29.94,10.0,West,3.5,-,N/A,,Clear,270,2013-06-29 15:55:00
11:15 AM,94.6,58.6,30,29.94,10.0,North,4.6,-,N/A,,Scattered Clouds,350,2013-06-29 16:15:00
11:35 AM,96.8,57.4,27,29.94,10.0,West,5.8,-,N/A,,Scattered Clouds,270,2013-06-29 16:35:00
11:55 AM,97.0,57.4,27,29.94,10.0,NNW,5.8,-,N/A,,Scattered Clouds,340,2013-06-29 16:55:00
12:15 PM,97.2,58.3,27,29.93,10.0,West,3.5,-,N/A,,Clear,270,2013-06-29 17:15:00
12:35 PM,99.0,59.4,27,29.93,10.0,WNW,8.1,-,N/A,,Clear,290,2013-06-29 17:35:00
12:55 PM,99.1,56.7,24,29.93,10.0,NNE,5.8,-,N/A,,Clear,20,2013-06-29 17:55:00
1:15 PM,101.7,52.3,19,29.92,10.0,NNE,4.6,-,N/A,,Clear,30,2013-06-29 18:15:00
1:35 PM,102.9,52.2,18,29.91,10.0,Calm,Calm,-,N/A,,Clear,0,2013-06-29 18:35:00
1:55 PM,102.0,52.7,19,29.90,10.0,NNE,10.4,-,N/A,,Clear,30,2013-06-29 18:55:00
2:15 PM,103.3,52.0,18,29.90,10.0,NNW,4.6,-,N/A,,Clear,330,2013-06-29 19:15:00
2:35 PM,101.7,52.5,19,29.89,10.0,NNE,6.9,-,N/A,,Scattered Clouds,20,2013-06-29 19:35:00
2:55 PM,101.8,50.7,18,29.89,10.0,NE,6.9,-,N/A,,Scattered Clouds,40,2013-06-29 19:55:00
3:15 PM,103.1,51.1,17,29.88,10.0,East,5.8,-,N/A,,Clear,90,2013-06-29 20:15:00
3:35 PM,101.7,51.4,19,29.87,10.0,ENE,4.6,-,N/A,,Scattered Clouds,60,2013-06-29 20:35:00
3:55 PM,103.1,51.4,18,29.87,10.0,North,3.5,-,N/A,,Scattered Clouds,10,2013-06-29 20:55:00
4:15 PM,101.7,53.2,20,29.86,10.0,Calm,Calm,-,N/A,,Scattered Clouds,0,2013-06-29 21:15:00
4:35 PM,102.2,51.6,18,29.85,10.0,Calm,Calm,-,N/A,,Clear,0,2013-06-29 21:35:00
4:55 PM,101.8,51.1,18,29.85,10.0,NE,6.9,-,N/A,,Clear,50,2013-06-29 21:55:00
5:15 PM,99.7,51.8,20,29.85,10.0,Calm,Calm,-,N/A,,Scattered Clouds,0,2013-06-29 22:15:00
5:35 PM,102.6,50.7,18,29.83,10.0,Calm,Calm,-,N/A,,Clear,0,2013-06-29 22:35:00
5:55 PM,102.9,51.1,18,29.82,10.0,SSE,6.9,-,N/A,,Clear,150,2013-06-29 22:55:00
6:15 PM,101.7,51.3,18,29.82,10.0,NE,4.6,-,N/A,,Scattered Clouds,50,2013-06-29 23:15:00
6:35 PM,101.7,51.3,18,29.81,10.0,Calm,Calm,-,N/A,,Clear,0,2013-06-29 23:35:00
6:55 PM,101.7,51.8,19,29.81,10.0,East,3.5,-,N/A,,Clear,80,2013-06-29 23:55:00
7:15 PM,100.0,51.8,20,29.81,10.0,East,4.6,-,N/A,,Clear,80,2013-06-30 00:15:00
7:35 PM,99.1,53.1,21,29.82,10.0,East,6.9,-,N/A,,Clear,90,2013-06-30 00:35:00
7:55 PM,99.1,55.6,23,29.82,10.0,ESE,6.9,-,N/A,,Clear,110,2013-06-30 00:55:00
8:15 PM,97.5,55.0,24,29.82,10.0,ESE,4.6,-,N/A,,Clear,120,2013-06-30 01:15:00
8:35 PM,96.8,56.3,26,29.83,10.0,ESE,4.6,-,N/A,,Clear,110,2013-06-30 01:35:00
8:55 PM,94.6,55.8,27,29.83,10.0,SE,3.5,-,N/A,,Clear,140,2013-06-30 01:55:00
9:15 PM,91.6,56.7,31,29.83,10.0,East,3.5,-,N/A,,Clear,80,2013-06-30 02:15:00
9:35 PM,91.6,58.6,33,29.84,10.0,East,3.5,-,N/A,,Clear,90,2013-06-30 02:35:00
9:55 PM,89.1,59.2,36,29.84,10.0,SE,3.5,-,N/A,,Clear,140,2013-06-30 02:55:00
10:15 PM,89.4,58.6,35,29.85,10.0,East,4.6,-,N/A,,Clear,80,2013-06-30 03:15:00
10:35 PM,90.5,59.5,35,29.86,10.0,Calm,Calm,-,N/A,,Scattered Clouds,0,2013-06-30 03:35:00
10:55 PM,88.5,59.4,37,29.86,10.0,Calm,Calm,-,N/A,,Scattered Clouds,0,2013-06-30 03:55:00
11:15 PM,89.1,58.5,35,29.87,10.0,ENE,3.5,-,N/A,,Scattered Clouds,70,2013-06-30 04:15:00
11:35 PM,91.6,57.4,31,29.88,10.0,Calm,Calm,-,N/A,,Scattered Clouds,0,2013-06-30 04:35:00
11:55 PM,84.7,61.7,46,29.88,10.0,Calm,Calm,-,N/A,,Clear,0,2013-06-30 04:55:00